PROFILE

 METAR AND TAF INFORMATION
ADDS - METARS form results

(0744 UTC 19 August 2019)
http://aviationweather.gov/metar/data/
 
TAF FNMO 182300Z 1900/1912 16004KT 7000 NSC TEMPO 1901/1905 2000 BR SCT015 BECMG 1907/1909 6000 BKN020 

 AIRPORT MAP

 RUNWAY INFORMATION
Runway 08 Runway length 8202 ft Runway width 148 ft
Runway elevation 210 ft Runway displaced threshold 0 ft Runway heading 66
Runway 26 Runway length 8202 ft Runway width 148 ft
Runway elevation 210 ft Runway displaced threshold 0 ft Runway heading 246

 AIRPORT FREQUENCIES
Type AFIS Name AFIS Frequency 118.1 MHZ

 AIRPORT NEAR NAVIGATION AIDS
Type NDB Name Namibe Frequency 358 KHZ
Type VOR-DME Name Namibe Frequency 114100 KHZ